| time (UTC) | temp F | wind direction | speed knots | gust knots | rain 1hr in | rain 24hr in | rain mn in | humidity % | barometer mb |
| 20260505080952 | 0 | 172 | 0.9 | 1.7 | 0.00 | 0.00 | 0.00 | 1018.1 | |
| 20260505080448 | 0 | 105 | 1.7 | 1.7 | 0.00 | 0.00 | 0.00 | 1018.0 | |
| 20260505075944 | 0 | 96 | 1.7 | 1.7 | 0.00 | 0.00 | 0.00 | 1018.0 | |
| 20260505075441 | 0 | 108 | 0.9 | 1.7 | 0.00 | 0.00 | 0.00 | 1018.0 | |
| 20260505074938 | 0 | 155 | 0.9 | 1.7 | 0.00 | 0.00 | 0.00 | 1017.8 | |
| 20260505074436 | 0 | 182 | 1.7 | 2.6 | 0.00 | 0.00 | 0.00 | 1018.1 | |
| 20260505073933 | 0 | 144 | 1.7 | 1.7 | 0.00 | 0.00 | 0.00 | 1018.2 | |
| 20260505073430 | 0 | 160 | 0.9 | 0.9 | 0.00 | 0.00 | 0.00 | 1017.9 | |
| 20260505072927 | 0 | 133 | 0.0 | 0.9 | 0.00 | 0.00 | 0.00 | 1017.9 | |
| 20260505072423 | 0 | 112 | 0.9 | 0.9 | 0.00 | 0.00 | 0.00 | 1018.0 | |
| 20260505071920 | 0 | 134 | 0.9 | 2.6 | 0.00 | 0.00 | 0.00 | 1017.9 | |
| 20260505071416 | 0 | 126 | 0.9 | 1.7 | 0.00 | 0.00 | 0.00 | 1017.9 | |
| 20260505070914 | 0 | 185 | 0.0 | 0.0 | 0.00 | 0.00 | 0.00 | 1017.7 | |
| 20260505070410 | 0 | 196 | 0.0 | 0.0 | 0.00 | 0.00 | 0.00 | 1017.9 | |
| 20260505065906 | 0 | 192 | 0.0 | 0.0 | 0.00 | 0.00 | 0.00 | 1017.8 | |
| 20260505065403 | 0 | 183 | 0.0 | 0.9 | 0.00 | 0.00 | 0.00 | 1018.1 | |
| 20260505064859 | 0 | 178 | 0.9 | 1.7 | 0.00 | 0.00 | 0.00 | 1018.0 | |
| 20260505064357 | 0 | 185 | 1.7 | 1.7 | 0.00 | 0.00 | 0.00 | 1017.9 | |
| 20260505063855 | 0 | 188 | 1.7 | 1.7 | 0.00 | 0.00 | 0.00 | 1018.0 | |
| 20260505063355 | 0 | 198 | 1.7 | 1.7 | 0.00 | 0.00 | 0.00 | 1018.1 | |
| 20260505062852 | 0 | 196 | 1.7 | 2.6 | 0.00 | 0.00 | 0.00 | 1018.1 | |
| 20260505062349 | 0 | 206 | 2.6 | 2.6 | 0.00 | 0.00 | 0.00 | 1018.1 | |
| 20260505061846 | 0 | 193 | 1.7 | 2.6 | 0.00 | 0.00 | 0.00 | 1018.2 | |
| 20260505061344 | 0 | 181 | 1.7 | 2.6 | 0.00 | 0.00 | 0.00 | 1018.2 | |
| 20260505060842 | 0 | 202 | 2.6 | 2.6 | 0.00 | 0.00 | 0.00 | 1018.3 | |
| 20260505060338 | 0 | 189 | 2.6 | 2.6 | 0.00 | 0.00 | 0.00 | 1018.4 | |
| 20260505055834 | 0 | 178 | 2.6 | 2.6 | 0.00 | 0.00 | 0.00 | 1018.4 | |
| 20260505055330 | 0 | 177 | 1.7 | 2.6 | 0.00 | 0.00 | 0.00 | 1018.4 | |
| 20260505054828 | 0 | 179 | 1.7 | 1.7 | 0.00 | 0.00 | 0.00 | 1018.2 | |
| 20260505054325 | 0 | 166 | 0.9 | 1.7 | 0.00 | 0.00 | 0.00 | 1018.6 | |
| 20260505053823 | 0 | 170 | 1.7 | 1.7 | 0.00 | 0.00 | 0.00 | 1018.3 | |
| 20260505053320 | 0 | 178 | 1.7 | 2.6 | 0.00 | 0.00 | 0.00 | 1018.6 | |
| 20260505052817 | 0 | 174 | 2.6 | 5.2 | 0.00 | 0.00 | 0.00 | 1018.6 | |
| 20260505052314 | 0 | 172 | 3.5 | 3.5 | 0.00 | 0.00 | 0.00 | 1018.7 | |
| 20260505051810 | 0 | 189 | 3.5 | 3.5 | 0.00 | 0.00 | 0.00 | 1018.7 | |
| 20260505051308 | 0 | 175 | 3.5 | 3.5 | 0.00 | 0.00 | 0.00 | 1018.5 | |
| 20260505050806 | 0 | 189 | 5.2 | 7.0 | 0.00 | 0.00 | 0.00 | 1018.9 | |
| 20260505050305 | 0 | 194 | 7.0 | 7.8 | 0.00 | 0.00 | 0.00 | 1019.0 | |
| 20260505041734 | 0 | 188 | 3.5 | 3.5 | 0.00 | 0.00 | 0.00 | 1019.2 | |
| 20260505041231 | 0 | 188 | 3.5 | 5.2 | 0.00 | 0.00 | 0.00 | 1019.4 | |
| 20260505040729 | 0 | 186 | 4.3 | 5.2 | 0.00 | 0.00 | 0.00 | 1019.2 | |
| 20260505040226 | 0 | 181 | 3.5 | 5.2 | 0.00 | 0.00 | 0.00 | 1019.3 | |
| 20260505035723 | 0 | 170 | 2.6 | 3.5 | 0.00 | 0.00 | 0.00 | 1019.6 | |
| 20260505035219 | 0 | 179 | 1.7 | 2.6 | 0.00 | 0.00 | 0.00 | 1019.2 | |
| 20260505034715 | 0 | 178 | 2.6 | 2.6 | 0.00 | 0.00 | 0.00 | 1019.2 | |
| 20260505034212 | 0 | 150 | 0.9 | 1.7 | 0.00 | 0.00 | 0.00 | 1019.3 | |
| 20260505033708 | 0 | 175 | 1.7 | 2.6 | 0.00 | 0.00 | 0.00 | 1019.4 | |
| 20260505033207 | 0 | 173 | 1.7 | 3.5 | 0.00 | 0.00 | 0.00 | 1019.4 | |
| 20260505032705 | 0 | 173 | 1.7 | 1.7 | 0.00 | 0.00 | 0.00 | 1019.4 | |
| 20260505032200 | 0 | 169 | 1.7 | 2.6 | 0.00 | 0.00 | 0.00 | 1019.5 | |
| 20260505031658 | 0 | 167 | 0.9 | 1.7 | 0.00 | 0.00 | 0.00 | 1019.7 | |
| 20260505031154 | 0 | 166 | 0.9 | 0.9 | 0.00 | 0.00 | 0.00 | 1019.7 | |
| 20260505030651 | 0 | 171 | 0.9 | 1.7 | 0.00 | 0.00 | 0.00 | 1019.7 | |
| 20260505030147 | 0 | 178 | 0.9 | 0.9 | 0.00 | 0.00 | 0.00 | 1019.8 | |
| 20260505025643 | 0 | 167 | 0.0 | 0.9 | 0.00 | 0.00 | 0.00 | 1019.5 | |
| 20260505025142 | 0 | 166 | 0.0 | 1.7 | 0.00 | 0.00 | 0.00 | 1019.8 | |
| 20260505024639 | 0 | 173 | 1.7 | 1.7 | 0.00 | 0.00 | 0.00 | 1019.5 | |
| 20260505024136 | 0 | 179 | 3.5 | 3.5 | 0.00 | 0.00 | 0.00 | 1019.5 | |
| 20260505023633 | 0 | 183 | 3.5 | 5.2 | 0.00 | 0.00 | 0.00 | 1019.4 | |
| 20260505023131 | 0 | 176 | 1.7 | 5.2 | 0.00 | 0.00 | 0.00 | 1019.6 | |
| 20260505022628 | 0 | 191 | 4.3 | 5.2 | 0.00 | 0.00 | 0.00 | 1019.5 | |
| 20260505022125 | 0 | 197 | 3.5 | 3.5 | 0.00 | 0.00 | 0.00 | 1019.4 | |
| 20260505021621 | 0 | 186 | 3.5 | 3.5 | 0.00 | 0.00 | 0.00 | 1019.2 | |
| 20260505021118 | 0 | 188 | 4.3 | 5.2 | 0.00 | 0.00 | 0.00 | 1019.4 | |
| 20260505020614 | 0 | 179 | 3.5 | 3.5 | 0.00 | 0.00 | 0.00 | 1019.4 | |
| 20260505020110 | 0 | 175 | 1.7 | 3.5 | 0.00 | 0.00 | 0.00 | 1019.4 | |
| 20260505015607 | 0 | 191 | 3.5 | 3.5 | 0.00 | 0.00 | 0.00 | 1019.6 | |
| 20260505015104 | 0 | 195 | 2.6 | 2.6 | 0.00 | 0.00 | 0.00 | 1019.2 | |
| 20260505014601 | 0 | 192 | 1.7 | 2.6 | 0.00 | 0.00 | 0.00 | 1019.2 | |
| 20260505014058 | 0 | 193 | 2.6 | 2.6 | 0.00 | 0.00 | 0.00 | 1019.4 | |
| 20260505013555 | 0 | 237 | 1.7 | 2.6 | 0.00 | 0.00 | 0.00 | 1019.4 | |
| 20260505013052 | 0 | 226 | 1.7 | 1.7 | 0.00 | 0.00 | 0.00 | 1019.2 | |
| 20260505012550 | 0 | 179 | 0.9 | 1.7 | 0.00 | 0.00 | 0.00 | 1019.4 | |
| 20260505012047 | 0 | 188 | 0.9 | 2.6 | 0.00 | 0.00 | 0.00 | 1019.4 | |
| 20260505011542 | 0 | 191 | 3.5 | 3.5 | 0.00 | 0.00 | 0.00 | 1018.9 | |
| 20260505011040 | 0 | 200 | 2.6 | 2.6 | 0.00 | 0.00 | 0.00 | 1019.1 | |
| 20260505010535 | 0 | 203 | 2.6 | 3.5 | 0.00 | 0.00 | 0.00 | 1019.0 | |
| 20260505010032 | 0 | 223 | 2.6 | 3.5 | 0.00 | 0.00 | 0.00 | 1018.9 | |
| 20260505005528 | 0 | 223 | 1.7 | 2.6 | 0.00 | 0.00 | 0.00 | 1019.0 | |
| 20260505005026 | 0 | 220 | 1.7 | 2.6 | 0.00 | 0.00 | 0.00 | 1018.9 | |
| 20260505004523 | 0 | 224 | 1.7 | 2.6 | 0.00 | 0.00 | 0.00 | 1018.9 | |
| 20260505004020 | 0 | 209 | 2.6 | 2.6 | 0.00 | 0.00 | 0.00 | 1018.7 | |
| 20260505003517 | 0 | 240 | 1.7 | 1.7 | 0.00 | 0.00 | 0.00 | 1018.6 | |
| 20260505003014 | 0 | 261 | 1.7 | 2.6 | 0.00 | 0.00 | 0.00 | 1018.5 | |
| 20260505002509 | 0 | 269 | 1.7 | 2.6 | 0.00 | 0.00 | 0.00 | 1018.2 | |
| 20260505002008 | 0 | 234 | 1.7 | 2.6 | 0.00 | 0.00 | 0.00 | 1018.3 | |
| 20260505001505 | 0 | 259 | 3.5 | 3.5 | 0.00 | 0.00 | 0.00 | 1018.7 | |
| 20260505001002 | 0 | 232 | 2.6 | 2.6 | 0.00 | 0.00 | 0.00 | 1018.3 | |
| 20260505000500 | 0 | 240 | 2.6 | 3.5 | 0.00 | 0.00 | 0.00 | 1018.2 | |
| 20260504235956 | 0 | 219 | 1.7 | 3.5 | 0.00 | 0.00 | 0.00 | 1018.4 | |
| 20260504235454 | 0 | 231 | 3.5 | 3.5 | 0.00 | 0.00 | 0.00 | 1018.5 | |
| 20260504234950 | 0 | 250 | 3.5 | 5.2 | 0.00 | 0.00 | 0.00 | 1018.3 | |
| 20260504234447 | 0 | 226 | 3.5 | 5.2 | 0.00 | 0.00 | 0.00 | 1018.4 | |
| 20260504233944 | 0 | 246 | 3.5 | 5.2 | 0.00 | 0.00 | 0.00 | 1018.1 | |
| 20260504233439 | 0 | 218 | 4.3 | 6.1 | 0.00 | 0.00 | 0.00 | 1018.2 | |
| 20260504232937 | 0 | 227 | 4.3 | 5.2 | 0.00 | 0.00 | 0.00 | 1018.0 | |
| 20260504232434 | 0 | 232 | 5.2 | 7.0 | 0.00 | 0.00 | 0.00 | 1017.8 | |
| 20260504231931 | 0 | 243 | 6.1 | 6.1 | 0.00 | 0.00 | 0.00 | 1018.2 | |
| 20260504231427 | 0 | 236 | 3.5 | 5.2 | 0.00 | 0.00 | 0.00 | 1018.3 | |
| 20260504230923 | 0 | 234 | 4.3 | 6.1 | 0.00 | 0.00 | 0.00 | 1018.1 | |
| 20260504230420 | 0 | 230 | 3.5 | 6.1 | 0.00 | 0.00 | 0.00 | 1017.8 | |
| 20260504225919 | 0 | 244 | 5.2 | 7.0 | 0.00 | 0.00 | 0.00 | 1017.8 | |
| 20260504225416 | 0 | 264 | 4.3 | 7.0 | 0.00 | 0.00 | 0.00 | 1017.7 | |
| 20260504224913 | 0 | 246 | 5.2 | 7.0 | 0.00 | 0.00 | 0.00 | 1017.7 | |
| 20260504224409 | 0 | 263 | 4.3 | 7.0 | 0.00 | 0.00 | 0.00 | 1017.9 | |
| 20260504223907 | 0 | 254 | 4.3 | 6.1 | 0.00 | 0.00 | 0.00 | 1017.6 | |
| 20260504223402 | 0 | 300 | 4.3 | 6.1 | 0.00 | 0.00 | 0.00 | 1017.6 | |
| 20260504222858 | 0 | 272 | 2.6 | 3.5 | 0.00 | 0.00 | 0.00 | 1017.6 | |
| 20260504222355 | 0 | 280 | 3.5 | 3.5 | 0.00 | 0.00 | 0.00 | 1017.5 | |
| 20260504221854 | 0 | 308 | 2.6 | 2.6 | 0.00 | 0.00 | 0.00 | 1017.2 | |
| 20260504221350 | 0 | 328 | 0.9 | 1.7 | 0.00 | 0.00 | 0.00 | 1017.2 | |
| 20260504220848 | 0 | 334 | 2.6 | 3.5 | 0.00 | 0.00 | 0.00 | 1017.0 | |
| 20260504220344 | 0 | 334 | 3.5 | 5.2 | 0.00 | 0.00 | 0.00 | 1017.3 | |
| 20260504215841 | 0 | 252 | 5.2 | 6.1 | 0.00 | 0.00 | 0.00 | 1017.2 | |
| 20260504215338 | 0 | 84 | 2.6 | 2.6 | 0.00 | 0.00 | 0.00 | 1016.9 | |
| 20260504214834 | 0 | 335 | 2.6 | 3.5 | 0.00 | 0.00 | 0.00 | 1016.6 | |
| 20260504214331 | 0 | 0 | 0.9 | 3.5 | 0.00 | 0.00 | 0.00 | 1016.7 | |
| 20260504213828 | 0 | 63 | 1.7 | 3.5 | 0.00 | 0.00 | 0.00 | 1016.9 | |
| 20260504213323 | 0 | 34 | 1.7 | 3.5 | 0.00 | 0.00 | 0.00 | 1017.0 | |
| 20260504212821 | 0 | 19 | 3.5 | 5.2 | 0.00 | 0.00 | 0.00 | 1016.9 | |
| 20260504212317 | 0 | 329 | 1.7 | 2.6 | 0.00 | 0.00 | 0.00 | 1016.6 | |
| 20260504211815 | 0 | 49 | 4.3 | 5.2 | 0.00 | 0.00 | 0.00 | 1016.7 | |
| 20260504211311 | 0 | 40 | 5.2 | 6.1 | 0.00 | 0.00 | 0.00 | 1016.9 | |
| 20260504210808 | 0 | 68 | 3.5 | 3.5 | 0.00 | 0.00 | 0.00 | 1016.8 | |
| 20260504210306 | 0 | 40 | 3.5 | 3.5 | 0.00 | 0.00 | 0.00 | 1016.6 | |
| 20260504205803 | 0 | 41 | 6.1 | 7.0 | 0.00 | 0.00 | 0.00 | 1016.8 | |
| 20260504205300 | 0 | 69 | 1.7 | 5.2 | 0.00 | 0.00 | 0.00 | 1016.7 | |
| 20260504204758 | 0 | 61 | 0.9 | 5.2 | 0.00 | 0.00 | 0.00 | 1016.6 | |
| 20260504204256 | 0 | 138 | 1.7 | 5.2 | 0.00 | 0.00 | 0.00 | 1016.6 | |
| 20260504203755 | 0 | 209 | 1.7 | 2.6 | 0.00 | 0.00 | 0.00 | 1016.8 | |
| 20260504203252 | 0 | 76 | 6.1 | 7.8 | 0.00 | 0.00 | 0.00 | 1016.7 | |
| 20260504202746 | 0 | 85 | 2.6 | 5.2 | 0.00 | 0.00 | 0.00 | 1016.6 | |
| 20260504202244 | 0 | 28 | 2.6 | 6.1 | 0.00 | 0.00 | 0.00 | 1016.7 | |
| 20260504201741 | 0 | 60 | 4.3 | 8.7 | 0.00 | 0.00 | 0.00 | 1016.5 | |
| 20260504201238 | 0 | 81 | 7.8 | 7.8 | 0.00 | 0.00 | 0.00 | 1016.4 | |
| 20260504200736 | 0 | 60 | 3.5 | 7.0 | 0.00 | 0.00 | 0.00 | 1016.4 | |
| 20260504200231 | 0 | 39 | 3.5 | 5.2 | 0.00 | 0.00 | 0.00 | 1016.9 | |
| 20260504195728 | 0 | 125 | 3.5 | 7.0 | 0.00 | 0.00 | 0.00 | 1016.7 | |
| 20260504195224 | 0 | 159 | 3.5 | 8.7 | 0.00 | 0.00 | 0.00 | 1016.5 | |
| 20260504194721 | 0 | 70 | 11.3 | 13.9 | 0.00 | 0.00 | 0.00 | 1016.7 | |
| 20260504194217 | 0 | 87 | 6.1 | 8.7 | 0.00 | 0.00 | 0.00 | 1016.4 | |
| 20260504193714 | 0 | 73 | 8.7 | 9.6 | 0.00 | 0.00 | 0.00 | 1016.8 | |
| 20260504193212 | 0 | 55 | 2.6 | 7.0 | 0.00 | 0.00 | 0.00 | 1016.7 | |
| 20260504192710 | 0 | 58 | 4.3 | 5.2 | 0.00 | 0.00 | 0.00 | 1016.8 | |
| 20260504192208 | 0 | 183 | 1.7 | 3.5 | 0.00 | 0.00 | 0.00 | 1017.0 | |
| 20260504191706 | 0 | 328 | 3.5 | 6.1 | 0.00 | 0.00 | 0.00 | 1017.0 | |
| 20260504191202 | 0 | 78 | 2.6 | 2.6 | 0.00 | 0.00 | 0.00 | 1016.7 | |
| 20260504190658 | 0 | 33 | 10.4 | 13.0 | 0.00 | 0.00 | 0.00 | 1016.7 | |
| 20260504190154 | 0 | 48 | 7.8 | 12.2 | 0.00 | 0.00 | 0.00 | 1016.7 | |
| 20260504185651 | 0 | 45 | 7.0 | 9.6 | 0.00 | 0.00 | 0.00 | 1016.8 | |
| 20260504185147 | 0 | 26 | 7.8 | 7.8 | 0.00 | 0.00 | 0.00 | 1016.7 | |
| 20260504184644 | 0 | 40 | 6.1 | 11.3 | 0.00 | 0.00 | 0.00 | 1016.7 | |
| 20260504184139 | 0 | 44 | 9.6 | 11.3 | 0.00 | 0.00 | 0.00 | 1016.7 | |
| 20260504183636 | 0 | 43 | 8.7 | 13.0 | 0.00 | 0.00 | 0.00 | 1017.0 | |
| 20260504183133 | 0 | 31 | 10.4 | 13.9 | 0.00 | 0.00 | 0.00 | 1017.0 | |
| 20260504182631 | 0 | 37 | 8.7 | 11.3 | 0.00 | 0.00 | 0.00 | 1017.2 | |
| 20260504182128 | 0 | 47 | 8.7 | 9.6 | 0.00 | 0.00 | 0.00 | 1017.0 | |
| 20260504181626 | 0 | 53 | 8.7 | 11.3 | 0.00 | 0.00 | 0.00 | 1017.1 | |
| 20260504181123 | 0 | 36 | 7.8 | 12.2 | 0.00 | 0.00 | 0.00 | 1017.1 | |
| 20260504180622 | 0 | 21 | 6.1 | 11.3 | 0.00 | 0.00 | 0.00 | 1017.3 | |
| 20260504180121 | 0 | 62 | 12.2 | 13.9 | 0.00 | 0.00 | 0.00 | 1017.4 | |
| 20260504175617 | 0 | 50 | 9.6 | 16.5 | 0.00 | 0.00 | 0.00 | 1017.4 | |
| 20260504175114 | 0 | 31 | 14.8 | 15.6 | 0.00 | 0.00 | 0.00 | 1017.4 | |
| 20260504174612 | 0 | 36 | 9.6 | 13.0 | 0.00 | 0.00 | 0.00 | 1017.6 | |
| 20260504174108 | 0 | 26 | 7.0 | 11.3 | 0.00 | 0.00 | 0.00 | 1017.7 | |
| 20260504173605 | 0 | 27 | 10.4 | 13.9 | 0.00 | 0.00 | 0.00 | 1017.8 | |
| 20260504173103 | 0 | 357 | 9.6 | 11.3 | 0.00 | 0.00 | 0.00 | 1017.8 | |
| 20260504172559 | 0 | 26 | 11.3 | 13.0 | 0.00 | 0.00 | 0.00 | 1017.8 | |
| 20260504172056 | 0 | 42 | 9.6 | 11.3 | 0.00 | 0.00 | 0.00 | 1017.8 | |
| 20260504171552 | 0 | 17 | 5.2 | 7.0 | 0.00 | 0.00 | 0.00 | 1017.9 | |
| 20260504171049 | 0 | 22 | 3.5 | 11.3 | 0.00 | 0.00 | 0.00 | 1017.8 | |
| 20260504170545 | 0 | 59 | 8.7 | 11.3 | 0.00 | 0.00 | 0.00 | 1017.7 | |
| 20260504150929 | 0 | 31 | 12.2 | 13.9 | 0.00 | 0.00 | 0.00 | 1018.9 | |
| 20260504150426 | 0 | 36 | 9.6 | 12.2 | 0.00 | 0.00 | 0.00 | 1018.9 | |
| 20260504140852 | 0 | 101 | 9.6 | 12.2 | 0.00 | 0.00 | 0.00 | 1019.0 | |
| 20260504140348 | 0 | 90 | 7.8 | 11.3 | 0.00 | 0.00 | 0.00 | 1019.3 | |
| 20260504130817 | 0 | 70 | 6.1 | 13.0 | 0.00 | 0.00 | 0.00 | 1018.6 | |
| 20260504130314 | 0 | 107 | 8.7 | 12.2 | 0.00 | 0.00 | 0.00 | 1018.8 | |
| 20260504120237 | 0 | 88 | 5.2 | 6.1 | 0.00 | 0.00 | 0.00 | 1019.2 | |
| 20260504110704 | 0 | 134 | 3.5 | 5.2 | 0.00 | 0.00 | 0.00 | 1019.1 | |
| 20260504110201 | 0 | 111 | 1.7 | 3.5 | 0.00 | 0.00 | 0.00 | 1019.1 | |
| 20260504100125 | 0 | 150 | 4.3 | 5.2 | 0.00 | 0.00 | 0.00 | 1018.8 | |
| 20260504081518 | 0 | 141 | 4.3 | 6.1 | 0.00 | 0.00 | 0.00 | 1017.8 | |
| 20260504081013 | 0 | 134 | 5.2 | 7.0 | 0.00 | 0.00 | 0.00 | 1018.0 |